Weather History for KMRH - June, 2013

Change the Weather History Date:

Monday, June 10, 2013

  Actual Average Record
Temperature  
Mean Temperature 78 °F -  
Max Temperature 82 °F 82 °F 90 °F (1985)
Min Temperature 75 °F 66 °F 52 °F (1988)
Cooling Degree Days 14    
Growing Degree Days 28 (Base 50)    
Moisture  
Dew Point 74 °F    
Average Humidity 89    
Maximum Humidity 94    
Minimum Humidity 79    
Precipitation  
Precipitation 0.00 in - - ()
Sea Level Pressure  
Sea Level Pressure 30.07 in    
Wind  
Wind Speed 14 mph (SSW)    
Max Wind Speed 21 mph    
Max Gust Speed 26 mph    
Visibility 9 miles    
Events      
Averages and records for this station are not official NWS values.
T = Trace of Precipitation, MM = Missing Value Source: NWS Daily Summary

Daily Weather History Graph

Daily Weather History Graph

Search for Another Location

Airport or City:

Trip Planner

Search our weather history database for the weather conditions in past years. The results will help you decide how hot, cold, wet, or windy it might be!

Date:

Astronomy

Jun. 10, 2013 Rise Set
Actual Time 5:52 AM EDT 8:19 PM EDT
Civil Twilight 5:23 AM EDT 8:49 PM EDT
Nautical Twilight 4:47 AM EDT 9:25 PM EDT
Astronomical Twilight 4:07 AM EDT 10:05 PM EDT
Moon 7:36 AM EDT (6/10) 9:49 PM EDT (6/10)
Length of Visible Light 15h 25m
Length of Day
14h 26m
Waxing Crescent, 4% of the Moon is Illuminated
Jun 10
Waxing Crescent
Jun 16
First Quarter
Jun 23
Full
Jun 30
Last Quarter
Jul 8
New

Hourly Weather History & Observations

Time (EDT) Temp. Heat Index Dew Point Humidity Pressure Visibility Wind Dir Wind Speed Gust Speed Precip Events Conditions
12:17 AM 75.2 °F - 71.6 °F 89% 30.16 in 10.0 mi South 11.5 mph 19.6 mph N/A   Partly Cloudy
12:58 AM 75.0 °F - 73.0 °F 94% 30.16 in 10.0 mi South 11.5 mph 19.6 mph N/A   Partly Cloudy
1:34 AM 75.2 °F - 71.6 °F 89% 30.15 in 10.0 mi South 12.7 mph - N/A   Mostly Cloudy
1:42 AM 75.2 °F - 71.6 °F 89% 30.15 in 10.0 mi SSW 11.5 mph - N/A   Scattered Clouds
1:58 AM 75.0 °F - 73.0 °F 94% 30.14 in 10.0 mi SSW 9.2 mph - N/A   Partly Cloudy
2:58 AM 75.0 °F - 73.0 °F 94% 30.12 in 10.0 mi South 8.1 mph - N/A   Clear
3:58 AM 75.0 °F - 73.0 °F 94% 30.12 in 10.0 mi South 8.1 mph - N/A   Clear
4:58 AM 75.9 °F - 73.9 °F 94% 30.12 in 10.0 mi SSW 9.2 mph - N/A   Clear
5:58 AM 75.9 °F - 73.9 °F 94% 30.12 in 9.0 mi SSW 10.4 mph - N/A   Clear
6:58 AM 77.0 °F - 73.9 °F 90% 30.12 in 9.0 mi SSW 11.5 mph - N/A   Clear
7:58 AM 78.1 °F - 73.9 °F 87% 30.13 in 10.0 mi South 11.5 mph - N/A   Clear
8:58 AM 79.0 °F - 75.0 °F 88% 30.13 in 10.0 mi SSW 13.8 mph - N/A   Clear
9:58 AM 79.0 °F - 75.0 °F 88% 30.13 in 9.0 mi SSW 13.8 mph - N/A   Clear
10:58 AM 80.1 °F 85.1 °F 75.0 °F 85% 30.12 in 10.0 mi SSW 13.8 mph - 0.00 in   Partly Cloudy
11:58 AM 82.0 °F 89.4 °F 75.9 °F 82% 30.11 in 9.0 mi SSW 16.1 mph - N/A   Clear
12:58 PM 82.0 °F 88.6 °F 75.0 °F 79% 30.10 in 9.0 mi SSW 16.1 mph - N/A   Partly Cloudy
1:58 PM 82.0 °F 88.6 °F 75.0 °F 79% 30.08 in 9.0 mi SSW 17.3 mph 25.3 mph N/A   Clear
2:58 PM 82.0 °F 88.6 °F 75.0 °F 79% 30.06 in 9.0 mi South 19.6 mph 25.3 mph N/A   Clear
3:58 PM 81.0 °F 86.2 °F 73.9 °F 79% 30.03 in 9.0 mi South 20.7 mph 25.3 mph N/A   Clear
4:58 PM 81.0 °F 86.7 °F 75.0 °F 82% 30.01 in 8.0 mi SSW 18.4 mph 25.3 mph N/A   Clear
5:58 PM 80.1 °F 85.1 °F 75.0 °F 85% 30.01 in 8.0 mi SSW 17.3 mph 24.2 mph N/A   Scattered Clouds
6:10 PM 80.6 °F 86.2 °F 75.2 °F 84% 30.01 in 8.0 mi SSW 18.4 mph 24.2 mph N/A   Mostly Cloudy
6:26 PM 80.6 °F 86.2 °F 75.2 °F 84% 30.02 in 8.0 mi SSW 17.3 mph 24.2 mph N/A   Scattered Clouds
6:58 PM 78.1 °F - 73.9 °F 87% 30.03 in 8.0 mi SSW 17.3 mph - N/A   Partly Cloudy
7:15 PM 78.8 °F - 75.2 °F 89% 30.04 in 8.0 mi SW 20.7 mph - N/A   Mostly Cloudy
7:30 PM 78.8 °F - 75.2 °F 89% 30.04 in 8.0 mi SW 17.3 mph 25.3 mph N/A   Mostly Cloudy
7:58 PM 78.1 °F - 73.9 °F 87% 30.04 in 8.0 mi SSW 19.6 mph - N/A   Mostly Cloudy
8:48 PM 77.0 °F - 75.2 °F 94% 30.02 in 9.0 mi SSW 15.0 mph - 0.00 in   Overcast
8:58 PM 77.0 °F - 75.0 °F 94% 30.02 in 8.0 mi SSW 13.8 mph - 0.00 in   Overcast
9:32 PM 77.0 °F - 75.2 °F 94% 30.03 in 8.0 mi SSW 13.8 mph - N/A   Mostly Cloudy
9:47 PM 77.0 °F - 75.2 °F 94% 30.02 in 8.0 mi SSW 15.0 mph - N/A   Mostly Cloudy
9:56 PM 77.0 °F - 75.2 °F 94% 30.03 in 8.0 mi SSW 15.0 mph - N/A   Mostly Cloudy
9:58 PM 77.0 °F - 75.0 °F 94% 30.03 in 8.0 mi SSW 17.3 mph - N/A   Mostly Cloudy
10:25 PM 77.0 °F - 75.2 °F 94% 30.03 in 8.0 mi SSW 15.0 mph - N/A   Overcast
10:36 PM 77.0 °F - 75.2 °F 94% 30.03 in 8.0 mi SSW 17.3 mph 24.2 mph N/A   Overcast
10:45 PM 77.0 °F - 75.2 °F 94% 30.04 in 8.0 mi SSW 19.6 mph 26.5 mph N/A   Mostly Cloudy
10:58 PM 77.0 °F - 75.0 °F 94% 30.04 in 9.0 mi SSW 19.6 mph 26.5 mph N/A   Overcast
11:21 PM 77.0 °F - 75.2 °F 94% 30.04 in 9.0 mi SSW 16.1 mph - N/A   Mostly Cloudy
11:56 PM 77.0 °F - 75.2 °F 94% 30.03 in 8.0 mi SSW 16.1 mph - N/A   Mostly Cloudy
11:58 PM 77.0 °F - 75.0 °F 94% 30.03 in 8.0 mi SSW 15.0 mph - N/A   Mostly Cloudy